| time (UTC) | temp F | wind direction | speed knots | gust knots | rain 1hr in | rain 24hr in | rain mn in | humidity % | barometer mb |
| 20260507085750 | 54 | 327 | 0.0 | 1.7 | 0.00 | 0.18 | 0.00 | 87 | 1007.9 |
| 20260507085241 | 54 | 327 | 0.0 | 1.7 | 0.00 | 0.18 | 0.00 | 87 | 1007.9 |
| 20260507084744 | 54 | 327 | 0.0 | 0.0 | 0.00 | 0.18 | 0.00 | 87 | 1007.9 |
| 20260507084245 | 54 | 327 | 0.0 | 0.0 | 0.00 | 0.18 | 0.00 | 87 | 1007.8 |
| 20260507083741 | 54 | 327 | 0.0 | 0.0 | 0.00 | 0.18 | 0.00 | 87 | 1007.8 |
| 20260507083242 | 54 | 327 | 0.0 | 0.9 | 0.00 | 0.18 | 0.00 | 87 | 1007.8 |
| 20260507082744 | 54 | 327 | 0.0 | 0.0 | 0.00 | 0.18 | 0.00 | 86 | 1007.4 |
| 20260507082247 | 54 | 327 | 0.0 | 0.0 | 0.00 | 0.18 | 0.00 | 86 | 1007.4 |
| 20260507081741 | 54 | 327 | 0.0 | 0.0 | 0.00 | 0.18 | 0.00 | 86 | 1007.4 |
| 20260507081244 | 54 | 327 | 0.0 | 0.9 | 0.00 | 0.18 | 0.00 | 86 | 1007.4 |
| 20260507080742 | 54 | 327 | 0.0 | 2.6 | 0.00 | 0.18 | 0.00 | 86 | 1007.4 |
| 20260507080244 | 54 | 327 | 0.0 | 2.6 | 0.00 | 0.18 | 0.00 | 86 | 1007.4 |
| 20260507075741 | 54 | 327 | 0.0 | 3.5 | 0.00 | 0.18 | 0.00 | 86 | 1007.3 |
| 20260507075241 | 54 | 327 | 0.0 | 5.2 | 0.00 | 0.18 | 0.00 | 86 | 1007.3 |
| 20260507074741 | 54 | 317 | 3.5 | 4.3 | 0.00 | 0.18 | 0.00 | 86 | 1007.3 |
| 20260507074247 | 55 | 312 | 2.6 | 3.5 | 0.00 | 0.18 | 0.00 | 86 | 1007.3 |
| 20260507073741 | 55 | 312 | 0.9 | 2.6 | 0.00 | 0.18 | 0.00 | 86 | 1007.3 |
| 20260507073244 | 54 | 311 | 0.0 | 5.2 | 0.00 | 0.18 | 0.00 | 85 | 1007.3 |
| 20260507072743 | 54 | 355 | 4.3 | 6.1 | 0.00 | 0.18 | 0.00 | 85 | 1007.2 |
| 20260507072244 | 55 | 13 | 0.9 | 7.0 | 0.00 | 0.18 | 0.00 | 85 | 1007.2 |
| 20260507071741 | 55 | 329 | 3.5 | 8.7 | 0.00 | 0.18 | 0.00 | 86 | 1007.2 |
| 20260507071244 | 55 | 348 | 7.0 | 7.8 | 0.00 | 0.18 | 0.00 | 86 | 1007.4 |
| 20260507070741 | 55 | 355 | 3.5 | 9.6 | 0.00 | 0.18 | 0.00 | 86 | 1007.4 |
| 20260507070241 | 55 | 15 | 0.9 | 9.6 | 0.00 | 0.18 | 0.00 | 87 | 1007.4 |
| 20260507065741 | 55 | 0 | 4.3 | 10.4 | 0.00 | 0.18 | 0.00 | 87 | 1007.5 |
| 20260507065241 | 55 | 10 | 0.9 | 7.8 | 0.00 | 0.18 | 0.00 | 87 | 1007.5 |
| 20260507064747 | 56 | 11 | 0.9 | 5.2 | 0.00 | 0.18 | 0.00 | 88 | 1007.5 |
| 20260507064249 | 56 | 11 | 0.9 | 4.3 | 0.00 | 0.18 | 0.00 | 88 | 1006.9 |
| 20260507063744 | 56 | 9 | 0.9 | 5.2 | 0.00 | 0.18 | 0.00 | 88 | 1006.9 |
| 20260507063244 | 56 | 9 | 0.9 | 7.0 | 0.00 | 0.18 | 0.00 | 88 | 1006.9 |
| 20260507062745 | 57 | 5 | 3.5 | 5.2 | 0.00 | 0.18 | 0.00 | 88 | 1007.4 |
| 20260507062241 | 57 | 5 | 1.7 | 4.3 | 0.00 | 0.18 | 0.00 | 88 | 1007.4 |
| 20260507061742 | 57 | 5 | 3.5 | 3.5 | 0.01 | 0.18 | 0.00 | 88 | 1007.4 |
| 20260507061248 | 57 | 5 | 0.0 | 3.5 | 0.01 | 0.18 | 0.00 | 88 | 1007.1 |
| 20260507060745 | 57 | 5 | 3.5 | 6.1 | 0.01 | 0.18 | 0.00 | 87 | 1007.1 |
| 20260507060242 | 57 | 0 | 3.5 | 5.2 | 0.01 | 0.18 | 0.00 | 87 | 1007.1 |
| 20260507055747 | 58 | 355 | 0.0 | 2.6 | 0.01 | 0.18 | 0.00 | 87 | 1007.4 |
| 20260507055244 | 58 | 355 | 0.0 | 3.5 | 0.01 | 0.18 | 0.00 | 87 | 1007.4 |
| 20260507054744 | 58 | 355 | 0.0 | 3.5 | 0.01 | 0.18 | 0.00 | 86 | 1007.4 |
| 20260507054241 | 58 | 355 | 0.0 | 3.5 | 0.01 | 0.18 | 0.00 | 85 | 1007.5 |
| 20260507053741 | 58 | 355 | 1.7 | 4.3 | 0.00 | 0.17 | 0.00 | 85 | 1007.5 |
| 20260507053243 | 58 | 350 | 3.5 | 4.3 | 0.00 | 0.17 | 0.00 | 84 | 1007.5 |
| 20260507052744 | 58 | 346 | 0.0 | 2.6 | 0.00 | 0.17 | 0.00 | 84 | 1007.4 |
| 20260507052241 | 59 | 346 | 0.0 | 2.6 | 0.00 | 0.17 | 0.00 | 84 | 1007.4 |
| 20260507051741 | 59 | 346 | 0.0 | 2.6 | 0.00 | 0.15 | 0.00 | 83 | 1007.4 |
| 20260507051241 | 59 | 346 | 2.6 | 7.8 | 0.00 | 0.15 | 0.00 | 83 | 1007.8 |
| 20260507050741 | 59 | 17 | 7.0 | 9.6 | 0.00 | 0.15 | 0.00 | 81 | 1007.8 |
| 20260507050242 | 60 | 329 | 0.9 | 5.2 | 0.00 | 0.15 | 0.00 | 80 | 1007.8 |
| 20260507045750 | 60 | 0 | 0.0 | 6.1 | 0.00 | 0.15 | 0.00 | 79 | 1007.3 |
| 20260507045247 | 60 | 340 | 4.3 | 5.2 | 0.00 | 0.15 | 0.00 | 77 | 1007.3 |
| 20260507044741 | 60 | 347 | 1.7 | 7.0 | 0.00 | 0.15 | 0.00 | 77 | 1007.3 |
| 20260507044241 | 60 | 5 | 7.0 | 7.8 | 0.00 | 0.15 | 0.00 | 76 | 1007.4 |
| 20260507043749 | 60 | 16 | 2.6 | 8.7 | 0.00 | 0.15 | 0.00 | 76 | 1007.4 |
| 20260507043241 | 61 | 0 | 3.5 | 5.2 | 0.00 | 0.15 | 0.00 | 75 | 1007.4 |
| 20260507042741 | 61 | 322 | 4.3 | 7.8 | 0.00 | 0.15 | 0.00 | 75 | 1007.5 |
| 20260507042241 | 62 | 349 | 1.7 | 11.3 | 0.00 | 0.15 | 0.00 | 75 | 1007.5 |
| 20260507041741 | 62 | 284 | 6.1 | 10.4 | 0.00 | 0.15 | 0.00 | 75 | 1007.5 |
| 20260507041242 | 62 | 344 | 0.9 | 6.1 | 0.00 | 0.15 | 0.00 | 75 | 1006.7 |
| 20260507040751 | 63 | 0 | 2.6 | 4.3 | 0.00 | 0.15 | 0.00 | 75 | 1006.7 |
| 20260507040241 | 63 | 0 | 0.9 | 5.2 | 0.00 | 0.15 | 0.00 | 75 | 1006.7 |
| 20260507035744 | 63 | 348 | 2.6 | 5.2 | 0.00 | 0.15 | 0.00 | 74 | 1006.5 |
| 20260507035249 | 63 | 355 | 2.6 | 5.2 | 0.00 | 0.15 | 0.00 | 74 | 1006.5 |
| 20260507034744 | 63 | 338 | 2.6 | 5.2 | 0.00 | 0.15 | 0.00 | 73 | 1006.5 |
| 20260507034242 | 63 | 340 | 2.6 | 4.3 | 0.00 | 0.15 | 0.00 | 73 | 1006.9 |
| 20260507033750 | 63 | 331 | 0.9 | 6.1 | 0.00 | 0.15 | 0.00 | 73 | 1006.9 |
| 20260507033245 | 63 | 338 | 3.5 | 7.0 | 0.00 | 0.15 | 0.00 | 73 | 1006.9 |
| 20260507032744 | 63 | 16 | 2.6 | 7.8 | 0.00 | 0.15 | 0.00 | 73 | 1006.6 |
| 20260507032247 | 63 | 350 | 0.9 | 4.3 | 0.00 | 0.15 | 0.00 | 73 | 1006.6 |
| 20260507031741 | 63 | 355 | 1.7 | 3.5 | 0.00 | 0.15 | 0.00 | 72 | 1006.6 |
| 20260507031248 | 63 | 355 | 2.6 | 5.2 | 0.00 | 0.15 | 0.00 | 72 | 1006.4 |
| 20260507030741 | 64 | 344 | 0.0 | 3.5 | 0.00 | 0.15 | 0.00 | 72 | 1006.4 |
| 20260507030244 | 64 | 344 | 0.0 | 5.2 | 0.00 | 0.15 | 0.00 | 72 | 1006.4 |
| 20260507025741 | 64 | 323 | 6.1 | 6.1 | 0.00 | 0.15 | 0.00 | 73 | 1006.3 |
| 20260507025244 | 64 | 9 | 3.5 | 5.2 | 0.00 | 0.15 | 0.00 | 73 | 1006.3 |
| 20260507024745 | 64 | 9 | 0.0 | 4.3 | 0.00 | 0.15 | 0.00 | 73 | 1006.3 |
| 20260507024244 | 64 | 13 | 3.5 | 7.8 | 0.00 | 0.15 | 0.00 | 73 | 1006.1 |
| 20260507023741 | 64 | 346 | 3.5 | 7.0 | 0.00 | 0.15 | 0.00 | 74 | 1006.1 |
| 20260507023248 | 65 | 355 | 5.2 | 10.4 | 0.00 | 0.15 | 0.00 | 74 | 1006.1 |
| 20260507022751 | 65 | 5 | 4.3 | 6.1 | 0.00 | 0.15 | 0.00 | 76 | 1005.9 |
| 20260507022244 | 65 | 0 | 1.7 | 10.4 | 0.00 | 0.15 | 0.00 | 77 | 1005.9 |
| 20260507021747 | 66 | 5 | 1.7 | 7.0 | 0.00 | 0.15 | 0.00 | 78 | 1005.9 |
| 20260507021241 | 66 | 10 | 0.9 | 7.8 | 0.00 | 0.15 | 0.00 | 78 | 1006.2 |
| 20260507020741 | 66 | 325 | 5.2 | 5.2 | 0.00 | 0.15 | 0.00 | 77 | 1006.2 |
| 20260507020247 | 67 | 307 | 3.5 | 4.3 | 0.00 | 0.15 | 0.00 | 77 | 1006.2 |
| 20260507015741 | 67 | 307 | 0.0 | 5.2 | 0.00 | 0.15 | 0.00 | 77 | 1005.7 |
| 20260507015247 | 67 | 307 | 0.9 | 2.6 | 0.00 | 0.15 | 0.00 | 77 | 1005.7 |
| 20260507014747 | 67 | 307 | 0.0 | 7.0 | 0.00 | 0.15 | 0.00 | 76 | 1005.7 |
| 20260507014241 | 67 | 286 | 0.0 | 2.6 | 0.00 | 0.15 | 0.00 | 76 | 1006.0 |
| 20260507013744 | 67 | 286 | 0.0 | 5.2 | 0.00 | 0.15 | 0.00 | 77 | 1006.0 |
| 20260507013241 | 67 | 286 | 1.7 | 7.0 | 0.00 | 0.15 | 0.00 | 77 | 1006.0 |
| 20260507012741 | 67 | 261 | 4.3 | 7.0 | 0.00 | 0.15 | 0.00 | 77 | 1006.3 |
| 20260507012244 | 68 | 230 | 2.6 | 5.2 | 0.00 | 0.15 | 0.00 | 77 | 1006.3 |
| 20260507011747 | 68 | 227 | 6.1 | 8.7 | 0.00 | 0.15 | 0.00 | 77 | 1006.3 |
| 20260507011241 | 68 | 171 | 1.7 | 3.5 | 0.00 | 0.15 | 0.00 | 77 | 1005.8 |
| 20260507010744 | 68 | 171 | 0.0 | 0.0 | 0.00 | 0.15 | 0.00 | 77 | 1005.8 |
| 20260507010244 | 68 | 171 | 0.0 | 0.0 | 0.00 | 0.15 | 0.00 | 77 | 1005.8 |
| 20260507005741 | 68 | 171 | 0.0 | 0.0 | 0.00 | 0.15 | 0.00 | 77 | 1005.8 |
| 20260507005247 | 68 | 171 | 0.0 | 0.0 | 0.00 | 0.15 | 0.00 | 76 | 1005.8 |
| 20260507004741 | 68 | 171 | 0.0 | 0.0 | 0.00 | 0.15 | 0.00 | 76 | 1005.8 |
| 20260507004250 | 68 | 171 | 0.0 | 0.0 | 0.00 | 0.15 | 0.00 | 76 | 1005.7 |
| 20260507003742 | 68 | 171 | 0.0 | 0.0 | 0.00 | 0.15 | 0.00 | 76 | 1005.7 |
| 20260507003244 | 68 | 171 | 0.0 | 1.7 | 0.00 | 0.15 | 0.00 | 76 | 1005.7 |
| 20260507002744 | 68 | 171 | 0.9 | 3.5 | 0.00 | 0.15 | 0.00 | 76 | 1005.3 |
| 20260507002241 | 68 | 171 | 1.7 | 3.5 | 0.00 | 0.15 | 0.00 | 75 | 1005.3 |
| 20260507001742 | 68 | 171 | 0.0 | 4.3 | 0.00 | 0.15 | 0.00 | 75 | 1005.3 |
| 20260507001244 | 69 | 171 | 0.0 | 1.7 | 0.00 | 0.15 | 0.00 | 75 | 1005.3 |
| 20260507000741 | 69 | 171 | 1.7 | 5.2 | 0.00 | 0.15 | 0.00 | 75 | 1005.3 |
| 20260507000247 | 69 | 172 | 0.0 | 1.7 | 0.00 | 0.15 | 0.00 | 75 | 1005.3 |
| 20260506235741 | 69 | 172 | 0.0 | 3.5 | 0.00 | 0.15 | 0.00 | 75 | 1005.1 |
| 20260506235247 | 69 | 172 | 0.0 | 3.5 | 0.00 | 0.15 | 0.00 | 74 | 1005.1 |
| 20260506234748 | 69 | 172 | 1.7 | 3.5 | 0.00 | 0.15 | 0.00 | 74 | 1005.1 |
| 20260506234241 | 69 | 172 | 1.7 | 6.1 | 0.00 | 0.15 | 0.00 | 74 | 1005.2 |
| 20260506233741 | 69 | 175 | 1.7 | 4.3 | 0.00 | 0.15 | 0.00 | 74 | 1005.2 |
| 20260506233244 | 69 | 175 | 0.9 | 3.5 | 0.00 | 0.15 | 0.00 | 73 | 1005.2 |
| 20260506232745 | 69 | 175 | 1.7 | 3.5 | 0.00 | 0.15 | 0.00 | 73 | 1004.7 |
| 20260506232244 | 70 | 175 | 3.5 | 4.3 | 0.00 | 0.15 | 0.00 | 73 | 1004.7 |
| 20260506231744 | 70 | 175 | 0.0 | 0.0 | 0.00 | 0.15 | 0.00 | 73 | 1004.7 |
| 20260506231245 | 70 | 175 | 0.0 | 1.7 | 0.00 | 0.15 | 0.00 | 73 | 1004.8 |
| 20260506230745 | 70 | 175 | 1.7 | 4.3 | 0.00 | 0.15 | 0.00 | 73 | 1004.8 |
| 20260506230247 | 70 | 175 | 0.9 | 5.2 | 0.00 | 0.15 | 0.00 | 72 | 1004.8 |
| 20260506225744 | 70 | 179 | 0.9 | 5.2 | 0.00 | 0.15 | 0.00 | 72 | 1004.5 |
| 20260506225248 | 70 | 180 | 3.5 | 4.3 | 0.00 | 0.15 | 0.00 | 72 | 1004.5 |
| 20260506224750 | 70 | 179 | 3.5 | 5.2 | 0.00 | 0.15 | 0.00 | 72 | 1004.5 |
| 20260506224251 | 70 | 179 | 3.5 | 4.3 | 0.00 | 0.15 | 0.00 | 71 | 1004.7 |
| 20260506223741 | 70 | 179 | 0.9 | 3.5 | 0.00 | 0.15 | 0.00 | 71 | 1004.7 |
| 20260506223241 | 70 | 180 | 0.9 | 4.3 | 0.00 | 0.15 | 0.00 | 71 | 1004.7 |
| 20260506222741 | 70 | 179 | 4.3 | 4.3 | 0.00 | 0.15 | 0.00 | 71 | 1004.8 |
| 20260506222241 | 70 | 180 | 0.9 | 4.3 | 0.00 | 0.15 | 0.00 | 70 | 1004.8 |
| 20260506221744 | 71 | 180 | 1.7 | 4.3 | 0.00 | 0.15 | 0.00 | 70 | 1004.8 |
| 20260506221244 | 71 | 180 | 1.7 | 4.3 | 0.00 | 0.15 | 0.00 | 70 | 1004.7 |
| 20260506220741 | 71 | 180 | 1.7 | 4.3 | 0.00 | 0.15 | 0.00 | 71 | 1004.7 |
| 20260506220241 | 71 | 179 | 3.5 | 6.1 | 0.00 | 0.15 | 0.00 | 71 | 1004.7 |
| 20260506215742 | 71 | 165 | 0.0 | 4.3 | 0.00 | 0.15 | 0.00 | 70 | 1004.7 |
| 20260506215247 | 71 | 165 | 0.9 | 4.3 | 0.00 | 0.15 | 0.00 | 70 | 1004.7 |
| 20260506214741 | 71 | 165 | 3.5 | 5.2 | 0.00 | 0.15 | 0.00 | 70 | 1004.7 |
| 20260506214245 | 71 | 165 | 4.3 | 6.1 | 0.00 | 0.15 | 0.00 | 71 | 1004.5 |
| 20260506213750 | 71 | 152 | 0.0 | 6.1 | 0.00 | 0.15 | 0.00 | 70 | 1004.5 |
| 20260506213247 | 71 | 150 | 3.5 | 5.2 | 0.00 | 0.15 | 0.00 | 70 | 1004.5 |
| 20260506212741 | 71 | 158 | 4.3 | 5.2 | 0.00 | 0.15 | 0.00 | 70 | 1004.5 |
| 20260506212250 | 71 | 158 | 1.7 | 6.1 | 0.00 | 0.15 | 0.00 | 70 | 1004.5 |
| 20260506211742 | 71 | 163 | 0.9 | 4.3 | 0.00 | 0.15 | 0.00 | 70 | 1004.5 |
| 20260506211241 | 70 | 165 | 4.3 | 7.0 | 0.00 | 0.15 | 0.00 | 70 | 1004.2 |
| 20260506210744 | 70 | 200 | 0.0 | 11.3 | 0.00 | 0.15 | 0.00 | 70 | 1004.2 |
| 20260506210244 | 70 | 169 | 3.5 | 7.0 | 0.00 | 0.15 | 0.00 | 71 | 1004.2 |
| 20260506205741 | 70 | 162 | 3.5 | 6.1 | 0.00 | 0.15 | 0.00 | 71 | 1004.1 |
| 20260506205241 | 70 | 154 | 0.9 | 4.3 | 0.00 | 0.15 | 0.00 | 71 | 1004.1 |
| 20260506204744 | 70 | 154 | 1.7 | 7.0 | 0.00 | 0.15 | 0.00 | 70 | 1004.1 |
| 20260506204244 | 70 | 151 | 1.7 | 7.0 | 0.00 | 0.15 | 0.00 | 70 | 1004.2 |
| 20260506203744 | 71 | 197 | 2.6 | 6.1 | 0.00 | 0.15 | 0.00 | 69 | 1004.2 |
| 20260506203247 | 71 | 235 | 2.6 | 4.3 | 0.00 | 0.15 | 0.00 | 70 | 1004.2 |
| 20260506202742 | 71 | 211 | 2.6 | 6.1 | 0.00 | 0.15 | 0.00 | 69 | 1004.1 |
| 20260506202245 | 71 | 216 | 1.7 | 7.8 | 0.00 | 0.15 | 0.00 | 69 | 1004.1 |
| 20260506201741 | 71 | 180 | 1.7 | 6.1 | 0.00 | 0.15 | 0.00 | 69 | 1004.1 |
| 20260506201242 | 71 | 286 | 1.7 | 6.1 | 0.00 | 0.15 | 0.00 | 69 | 1004.2 |
| 20260506200741 | 71 | 142 | 4.3 | 7.8 | 0.00 | 0.15 | 0.00 | 69 | 1004.2 |
| 20260506200243 | 71 | 223 | 4.3 | 7.0 | 0.00 | 0.15 | 0.00 | 70 | 1004.2 |
| 20260506195741 | 71 | 211 | 2.6 | 8.7 | 0.00 | 0.15 | 0.00 | 70 | 1004.2 |
| 20260506195247 | 70 | 125 | 1.7 | 9.6 | 0.00 | 0.15 | 0.00 | 71 | 1004.2 |
| 20260506194741 | 70 | 169 | 4.3 | 7.0 | 0.00 | 0.15 | 0.00 | 72 | 1004.2 |
| 20260506194251 | 70 | 235 | 3.5 | 8.7 | 0.00 | 0.15 | 0.00 | 74 | 1004.2 |
| 20260506193742 | 69 | 182 | 2.6 | 8.7 | 0.00 | 0.15 | 0.00 | 75 | 1004.2 |
| 20260506193241 | 69 | 269 | 1.7 | 6.1 | 0.00 | 0.15 | 0.00 | 76 | 1004.2 |
| 20260506192741 | 69 | 218 | 2.6 | 9.6 | 0.00 | 0.15 | 0.00 | 77 | 1004.3 |
| 20260506192241 | 68 | 271 | 2.6 | 6.1 | 0.00 | 0.15 | 0.00 | 79 | 1004.3 |
| 20260506191744 | 68 | 165 | 1.7 | 7.0 | 0.00 | 0.15 | 0.00 | 79 | 1004.3 |
| 20260506191244 | 67 | 150 | 3.5 | 6.1 | 0.00 | 0.15 | 0.00 | 80 | 1004.6 |
| 20260506190741 | 67 | 161 | 4.3 | 7.0 | 0.00 | 0.15 | 0.00 | 81 | 1004.6 |
| 20260506190241 | 67 | 171 | 0.9 | 5.2 | 0.00 | 0.15 | 0.00 | 82 | 1004.6 |
| 20260506185741 | 67 | 196 | 5.2 | 7.8 | 0.00 | 0.15 | 0.00 | 83 | 1004.8 |
| 20260506185241 | 66 | 152 | 7.0 | 8.7 | 0.00 | 0.15 | 0.00 | 83 | 1004.8 |
| 20260506184744 | 66 | 175 | 4.3 | 8.7 | 0.00 | 0.15 | 0.00 | 84 | 1004.8 |
| 20260506184241 | 66 | 145 | 3.5 | 8.7 | 0.00 | 0.15 | 0.00 | 85 | 1004.8 |
| 20260506183741 | 66 | 277 | 5.2 | 6.1 | 0.00 | 0.15 | 0.00 | 86 | 1004.8 |
| 20260506183241 | 65 | 257 | 0.0 | 8.7 | 0.00 | 0.15 | 0.00 | 86 | 1004.8 |
| 20260506182748 | 65 | 232 | 3.5 | 7.8 | 0.00 | 0.15 | 0.00 | 87 | 1005.0 |
| 20260506182242 | 65 | 296 | 1.7 | 7.8 | 0.00 | 0.15 | 0.00 | 88 | 1005.0 |
| 20260506181742 | 64 | 178 | 4.3 | 9.6 | 0.00 | 0.15 | 0.00 | 88 | 1005.0 |
| 20260506181241 | 64 | 213 | 1.7 | 8.7 | 0.00 | 0.15 | 0.00 | 88 | 1005.1 |
| 20260506180744 | 64 | 206 | 4.3 | 10.4 | 0.01 | 0.15 | 0.00 | 88 | 1005.1 |
| 20260506180241 | 64 | 159 | 1.7 | 8.7 | 0.01 | 0.15 | 0.00 | 89 | 1005.1 |
| 20260506175744 | 64 | 311 | 2.6 | 7.0 | 0.01 | 0.15 | 0.00 | 89 | 1005.1 |
| 20260506175247 | 64 | 128 | 3.5 | 9.6 | 0.01 | 0.15 | 0.00 | 89 | 1005.1 |
| 20260506174745 | 63 | 244 | 6.1 | 8.7 | 0.00 | 0.14 | 0.00 | 89 | 1005.1 |
| 20260506174241 | 63 | 207 | 4.3 | 10.4 | 0.00 | 0.14 | 0.00 | 90 | 1005.1 |
| 20260506173744 | 63 | 248 | 2.6 | 10.4 | 0.01 | 0.14 | 0.00 | 90 | 1005.1 |
| 20260506173244 | 63 | 137 | 4.3 | 8.7 | 0.01 | 0.14 | 0.00 | 90 | 1005.1 |
| 20260506172744 | 63 | 202 | 4.3 | 10.4 | 0.01 | 0.14 | 0.00 | 90 | 1005.3 |
| 20260506172244 | 63 | 181 | 4.3 | 10.4 | 0.01 | 0.14 | 0.00 | 91 | 1005.3 |
| 20260506171744 | 63 | 245 | 5.2 | 13.9 | 0.02 | 0.14 | 0.00 | 91 | 1005.3 |
| 20260506171244 | 63 | 279 | 3.5 | 9.6 | 0.02 | 0.14 | 0.00 | 91 | 1005.3 |
| 20260506170748 | 63 | 169 | 3.5 | 7.8 | 0.01 | 0.13 | 0.00 | 91 | 1005.3 |
| 20260506170245 | 63 | 300 | 7.0 | 8.7 | 0.01 | 0.13 | 0.00 | 91 | 1005.3 |
| 20260506165741 | 63 | 250 | 4.3 | 12.2 | 0.02 | 0.13 | 0.00 | 91 | 1005.6 |
| 20260506165242 | 62 | 228 | 2.6 | 10.4 | 0.02 | 0.13 | 0.00 | 91 | 1005.6 |
| 20260506164744 | 62 | 311 | 0.9 | 10.4 | 0.02 | 0.13 | 0.00 | 91 | 1005.6 |
| 20260506164241 | 62 | 163 | 5.2 | 9.6 | 0.03 | 0.13 | 0.00 | 91 | 1005.5 |
| 20260506163741 | 62 | 217 | 1.7 | 12.2 | 0.02 | 0.12 | 0.00 | 91 | 1005.5 |
| 20260506163242 | 62 | 221 | 4.3 | 11.3 | 0.02 | 0.12 | 0.00 | 91 | 1005.5 |
| 20260506162741 | 62 | 218 | 3.5 | 7.8 | 0.02 | 0.12 | 0.00 | 91 | 1005.6 |
| 20260506162241 | 62 | 231 | 5.2 | 11.3 | 0.03 | 0.12 | 0.00 | 90 | 1005.6 |
| 20260506161741 | 62 | 300 | 2.6 | 12.2 | 0.02 | 0.11 | 0.00 | 90 | 1005.6 |
| 20260506161241 | 62 | 186 | 6.1 | 10.4 | 0.03 | 0.11 | 0.00 | 90 | 1005.6 |
| 20260506160744 | 62 | 205 | 7.0 | 13.0 | 0.03 | 0.11 | 0.00 | 90 | 1005.6 |
| 20260506160241 | 62 | 187 | 3.5 | 13.9 | 0.03 | 0.11 | 0.00 | 90 | 1005.6 |
| 20260506155745 | 62 | 210 | 7.0 | 10.4 | 0.03 | 0.10 | 0.00 | 90 | 1005.7 |
| 20260506155241 | 62 | 190 | 0.9 | 7.8 | 0.03 | 0.10 | 0.00 | 90 | 1005.7 |
| 20260506154747 | 62 | 107 | 3.5 | 7.0 | 0.03 | 0.10 | 0.00 | 90 | 1005.7 |
| 20260506154241 | 62 | 115 | 7.0 | 9.6 | 0.03 | 0.09 | 0.00 | 90 | 1005.7 |
| 20260506153744 | 62 | 88 | 0.9 | 5.2 | 0.03 | 0.09 | 0.00 | 90 | 1005.7 |
| 20260506153248 | 62 | 171 | 1.7 | 8.7 | 0.03 | 0.09 | 0.00 | 90 | 1005.7 |
| 20260506152747 | 62 | 168 | 0.9 | 7.0 | 0.04 | 0.09 | 0.00 | 89 | 1006.2 |
| 20260506152244 | 62 | 188 | 4.3 | 10.4 | 0.03 | 0.08 | 0.00 | 89 | 1006.2 |
| 20260506151747 | 62 | 177 | 4.3 | 7.0 | 0.03 | 0.08 | 0.00 | 89 | 1006.2 |
| 20260506151244 | 62 | 150 | 4.3 | 10.4 | 0.03 | 0.07 | 0.00 | 89 | 1006.3 |
| 20260506150742 | 62 | 190 | 2.6 | 10.4 | 0.03 | 0.07 | 0.00 | 89 | 1006.3 |
| 20260506150247 | 62 | 142 | 0.9 | 8.7 | 0.03 | 0.07 | 0.00 | 88 | 1006.3 |
| 20260506145741 | 62 | 161 | 1.7 | 9.6 | 0.02 | 0.06 | 0.00 | 88 | 1006.6 |
| 20260506145241 | 61 | 231 | 1.7 | 9.6 | 0.02 | 0.06 | 0.00 | 88 | 1006.6 |
| 20260506144747 | 62 | 243 | 0.0 | 14.8 | 0.03 | 0.06 | 0.00 | 88 | 1006.6 |
| 20260506144241 | 62 | 225 | 0.9 | 12.2 | 0.02 | 0.05 | 0.00 | 87 | 1006.2 |
| 20260506143749 | 62 | 171 | 1.7 | 7.8 | 0.02 | 0.05 | 0.00 | 87 | 1006.2 |
| 20260506143248 | 62 | 217 | 1.7 | 11.3 | 0.02 | 0.05 | 0.00 | 87 | 1006.2 |
| 20260506142741 | 62 | 204 | 0.0 | 10.4 | 0.02 | 0.04 | 0.00 | 87 | 1006.2 |
| 20260506142242 | 62 | 147 | 4.3 | 7.8 | 0.02 | 0.04 | 0.00 | 86 | 1006.2 |
| 20260506141741 | 62 | 175 | 1.7 | 7.8 | 0.02 | 0.04 | 0.00 | 86 | 1006.2 |
| 20260506141241 | 62 | 179 | 7.8 | 7.8 | 0.01 | 0.03 | 0.00 | 86 | 1006.6 |
| 20260506140741 | 62 | 146 | 0.9 | 7.0 | 0.01 | 0.03 | 0.00 | 85 | 1006.6 |
| 20260506140247 | 62 | 215 | 5.2 | 7.8 | 0.01 | 0.03 | 0.00 | 85 | 1006.6 |
| 20260506135741 | 63 | 178 | 3.5 | 9.6 | 0.02 | 0.03 | 0.00 | 84 | 1006.7 |
| 20260506135241 | 63 | 196 | 1.7 | 12.2 | 0.02 | 0.03 | 0.00 | 84 | 1006.7 |
| 20260506134744 | 63 | 157 | 0.9 | 7.0 | 0.01 | 0.02 | 0.00 | 84 | 1006.7 |
| 20260506134241 | 63 | 163 | 0.0 | 9.6 | 0.02 | 0.02 | 0.00 | 83 | 1007.1 |
| 20260506133741 | 63 | 194 | 1.7 | 7.8 | 0.02 | 0.02 | 0.00 | 83 | 1007.1 |
| 20260506133247 | 63 | 129 | 1.7 | 7.8 | 0.02 | 0.02 | 0.00 | 82 | 1007.1 |
| 20260506132744 | 63 | 178 | 3.5 | 7.8 | 0.01 | 0.01 | 0.00 | 81 | 1006.8 |
| 20260506132245 | 64 | 236 | 3.5 | 7.8 | 0.01 | 0.01 | 0.00 | 81 | 1006.8 |
| 20260506131744 | 64 | 118 | 0.9 | 6.1 | 0.01 | 0.01 | 0.00 | 81 | 1006.8 |
| 20260506131248 | 64 | 153 | 0.0 | 4.3 | 0.01 | 0.01 | 0.00 | 80 | 1006.4 |
| 20260506130744 | 64 | 150 | 3.5 | 6.1 | 0.01 | 0.01 | 0.00 | 80 | 1006.4 |
| 20260506130241 | 64 | 163 | 1.7 | 7.0 | 0.01 | 0.01 | 0.00 | 79 | 1006.4 |
| 20260506125742 | 64 | 213 | 1.7 | 9.6 | 0.00 | 0.00 | 0.00 | 78 | 1006.3 |
| 20260506125247 | 64 | 155 | 0.9 | 6.1 | 0.00 | 0.00 | 0.00 | 78 | 1006.3 |
| 20260506124741 | 64 | 182 | 0.9 | 5.2 | 0.00 | 0.00 | 0.00 | 77 | 1006.3 |
| 20260506124241 | 64 | 154 | 1.7 | 6.1 | 0.00 | 0.00 | 0.00 | 76 | 1006.4 |
| 20260506123742 | 65 | 145 | 0.0 | 9.6 | 0.00 | 0.00 | 0.00 | 75 | 1006.4 |
| 20260506123241 | 65 | 138 | 3.5 | 8.7 | 0.00 | 0.00 | 0.00 | 75 | 1006.4 |
| 20260506122747 | 65 | 162 | 5.2 | 7.0 | 0.00 | 0.00 | 0.00 | 74 | 1006.9 |
| 20260506122241 | 65 | 209 | 0.9 | 8.7 | 0.00 | 0.00 | 0.00 | 73 | 1006.9 |
| 20260506121741 | 65 | 213 | 2.6 | 8.7 | 0.00 | 0.00 | 0.00 | 73 | 1006.9 |
| 20260506121244 | 65 | 236 | 4.3 | 8.7 | 0.00 | 0.00 | 0.00 | 72 | 1006.8 |
| 20260506120741 | 66 | 146 | 3.5 | 7.0 | 0.00 | 0.00 | 0.00 | 71 | 1006.8 |
| 20260506120241 | 66 | 198 | 7.0 | 7.8 | 0.00 | 0.00 | 0.00 | 70 | 1006.8 |
| 20260506115741 | 66 | 179 | 1.7 | 7.8 | 0.00 | 0.00 | 0.00 | 69 | 1006.7 |
| 20260506115244 | 66 | 191 | 1.7 | 9.6 | 0.00 | 0.00 | 0.00 | 68 | 1006.7 |
| 20260506114751 | 66 | 166 | 3.5 | 8.7 | 0.00 | 0.00 | 0.00 | 67 | 1006.7 |
| 20260506114242 | 66 | 232 | 3.5 | 7.8 | 0.00 | 0.00 | 0.00 | 67 | 1006.4 |
| 20260506113748 | 66 | 273 | 0.9 | 13.9 | 0.00 | 0.00 | 0.00 | 67 | 1006.4 |
| 20260506113244 | 66 | 138 | 3.5 | 10.4 | 0.00 | 0.00 | 0.00 | 67 | 1006.4 |
| 20260506112742 | 66 | 266 | 5.2 | 10.4 | 0.00 | 0.00 | 0.00 | 67 | 1006.3 |
| 20260506112241 | 66 | 166 | 8.7 | 12.2 | 0.00 | 0.00 | 0.00 | 67 | 1006.3 |
| 20260506111742 | 66 | 207 | 4.3 | 13.0 | 0.00 | 0.00 | 0.00 | 67 | 1006.3 |
| 20260506111241 | 66 | 206 | 2.6 | 10.4 | 0.00 | 0.00 | 0.00 | 67 | 1006.1 |
| 20260506110747 | 66 | 297 | 4.3 | 13.0 | 0.00 | 0.00 | 0.00 | 67 | 1006.1 |
| 20260506110245 | 66 | 239 | 2.6 | 10.4 | 0.00 | 0.00 | 0.00 | 67 | 1006.1 |
| 20260506105741 | 66 | 153 | 0.9 | 13.9 | 0.00 | 0.00 | 0.00 | 67 | 1005.9 |
| 20260506105241 | 66 | 185 | 4.3 | 10.4 | 0.00 | 0.00 | 0.00 | 67 | 1005.9 |
| 20260506104741 | 66 | 215 | 3.5 | 10.4 | 0.00 | 0.00 | 0.00 | 67 | 1005.9 |
| 20260506104241 | 66 | 196 | 4.3 | 6.1 | 0.00 | 0.00 | 0.00 | 67 | 1005.8 |
| 20260506103742 | 66 | 194 | 3.5 | 10.4 | 0.00 | 0.00 | 0.00 | 67 | 1005.8 |
| 20260506103244 | 66 | 154 | 3.5 | 10.4 | 0.00 | 0.00 | 0.00 | 67 | 1005.8 |
| 20260506102741 | 66 | 167 | 6.1 | 13.0 | 0.00 | 0.00 | 0.00 | 67 | 1005.9 |
| 20260506102247 | 66 | 232 | 5.2 | 11.3 | 0.00 | 0.00 | 0.00 | 67 | 1005.9 |
| 20260506101741 | 66 | 113 | 3.5 | 13.9 | 0.00 | 0.00 | 0.00 | 67 | 1005.9 |
| 20260506101241 | 66 | 202 | 12.2 | 13.0 | 0.00 | 0.00 | 0.00 | 66 | 1005.8 |
| 20260506100745 | 66 | 294 | 5.2 | 10.4 | 0.00 | 0.00 | 0.00 | 66 | 1005.8 |
| 20260506100244 | 66 | 176 | 5.2 | 11.3 | 0.00 | 0.00 | 0.00 | 66 | 1005.8 |
| 20260506095744 | 66 | 261 | 3.5 | 10.4 | 0.00 | 0.00 | 0.00 | 66 | 1006.0 |
| 20260506095241 | 66 | 159 | 1.7 | 9.6 | 0.00 | 0.00 | 0.00 | 66 | 1006.0 |
| 20260506094742 | 66 | 258 | 7.0 | 10.4 | 0.00 | 0.00 | 0.00 | 65 | 1006.0 |
| 20260506094245 | 66 | 156 | 0.9 | 7.8 | 0.00 | 0.00 | 0.00 | 65 | 1006.1 |
| 20260506093746 | 66 | 189 | 4.3 | 12.2 | 0.00 | 0.00 | 0.00 | 65 | 1006.1 |
| 20260506093244 | 66 | 182 | 6.1 | 14.8 | 0.00 | 0.00 | 0.00 | 65 | 1006.1 |
| 20260506092741 | 66 | 140 | 3.5 | 13.0 | 0.00 | 0.00 | 0.00 | 64 | 1006.0 |
| 20260506092247 | 67 | 219 | 7.0 | 10.4 | 0.00 | 0.00 | 0.00 | 64 | 1006.0 |
| 20260506091744 | 67 | 188 | 4.3 | 12.2 | 0.00 | 0.00 | 0.00 | 64 | 1006.0 |
| 20260506091247 | 67 | 198 | 3.5 | 9.6 | 0.00 | 0.00 | 0.00 | 63 | 1006.2 |
| 20260506090747 | 67 | 215 | 3.5 | 12.2 | 0.00 | 0.00 | 0.00 | 63 | 1006.2 |
| 20260506090241 | 67 | 206 | 5.2 | 12.2 | 0.00 | 0.00 | 0.00 | 62 | 1006.2 |